Wind_Speed
15 14 13 14 16 18 17 17 17 17 17 16 16 16 16 17 17 17 17 17 18 17 17 16 15 14 13 13 13 13 14 15 15 15 15 15 14 14 13 13 13 13 13 12 12 13 13 14 14 14 13 13 12 12 12 13 13 13 12 12 12 11 11
15 14 14 15 17 18 17 18 19 19 19 19 18 18 18 18 19 19 19 19 19 18 17 16 15 14 14 14 14 14 15 15 15 15 15 14 15 14 14 14 14 13 13 13 13 14 14 14 14 13 13 13 13 13 13 14 14 14 13 13 13 12 12
15 15 16 18 18 18 18 19 20 21 22 21 21 20 20 20 20 20 20 19 19 18 17 16 15 15 15 15 15 15 15 15 15 15 15 14 14 14 14 14 14 14 14 14 15 15 15 14 14 14 14 14 14 14 15 15 15 15 15 14 14 14 14
15 15 17 19 19 19 19 20 21 22 22 22 21 21 21 21 21 20 20 19 18 17 17 16 16 16 16 15 15 15 15 15 15 15 15 15 15 15 15 15 15 15 15 15 15 15 15 15 14 14 15 16 16 16 16 16 16 15 15 15 15 15 14
15 15 17 19 19 19 19 19 20 21 21 21 21 21 21 21 20 19 19 18 17 17 17 17 17 16 16 16 15 15 16 16 16 15 15 15 15 16 16 16 16 16 16 16 16 16 16 16 15 15 16 17 16 16 16 16 16 16 15 15 15 15 15
15 16 18 19 19 18 18 18 19 19 20 20 20 20 21 20 19 18 17 17 17 17 17 17 17 16 16 16 16 16 16 16 16 15 15 15 16 16 16 16 17 17 17 17 17 17 17 16 16 16 17 17 17 16 16 16 16 15 15 15 15 15 16
17 17 18 18 17 17 17 19 19 19 20 20 20 20 20 19 18 17 17 17 17 17 17 17 16 16 16 16 16 16 16 16 16 15 15 15 16 16 16 16 17 17 17 17 17 17 16 16 16 17 17 17 17 16 16 16 15 15 15 16 16 16 16
17 17 17 17 16 16 18 19 19 19 20 21 21 20 18 18 17 18 18 19 18 18 17 16 16 16 16 17 17 17 17 16 16 16 16 16 16 16 16 16 16 16 16 16 16 16 16 16 16 17 17 17 17 17 16 16 16 16 16 16 17 17 17
16 17 17 16 15 17 18 18 19 19 19 20 21 19 17 17 18 20 21 20 19 18 18 17 17 17 17 17 17 17 16 16 16 16 16 16 16 16 16 16 16 16 16 15 15 15 15 16 16 17 17 18 17 17 17 17 16 16 16 17 17 17 17
17 17 16 16 16 17 18 18 18 18 18 19 20 18 17 18 19 21 22 21 20 20 20 19 18 17 17 18 17 17 16 15 16 16 16 16 16 16 16 16 16 16 16 16 15 15 16 16 17 18 18 18 18 17 17 17 17 17 17 17 18 18 18
17 16 16 16 16 17 19 18 18 17 17 18 18 17 17 18 20 21 22 21 21 21 20 19 18 18 18 17 17 16 15 15 15 16 16 16 17 17 17 17 17 18 18 17 17 17 16 17 17 18 18 17 17 17 17 17 17 17 18 18 18 18 18
16 15 15 15 16 17 19 19 18 18 17 17 16 16 17 18 20 21 22 21 21 20 19 19 18 18 18 17 16 15 15 15 15 16 17 17 17 18 18 18 18 19 19 19 19 18 17 17 18 17 17 17 17 17 17 18 17 17 17 18 18 18 19
16 15 14 15 15 17 18 18 18 19 19 18 18 18 18 20 21 21 21 21 21 21 20 20 19 18 18 17 17 17 17 17 17 17 18 18 18 18 19 19 19 19 20 20 20 20 19 19 18 18 17 17 17 17 17 17 17 17 17 18 18 19 20
18 17 16 16 16 16 17 17 18 19 20 20 20 20 20 21 22 22 21 21 21 21 21 21 20 19 18 18 17 18 18 19 19 18 18 18 18 18 19 19 19 19 20 21 21 20 20 20 20 19 19 18 18 17 17 17 17 18 18 19 20 20 20
19 18 17 16 17 16 16 17 19 20 21 21 21 21 21 21 21 22 22 21 20 20 20 20 19 19 18 18 17 17 18 19 19 19 18 18 18 18 19 19 19 20 21 21 21 21 20 21 21 20 20 19 18 18 17 18 18 19 19 20 21 21 21
20 19 18 18 17 17 17 18 20 21 21 21 21 21 20 20 21 22 22 21 20 20 20 19 19 18 17 17 17 18 18 19 20 20 19 18 18 18 19 19 20 21 22 22 22 22 21 21 22 21 20 19 19 18 19 19 20 20 21 22 22 22 22
22 22 22 21 19 19 19 20 21 21 21 21 22 22 22 22 23 23 22 21 20 20 20 19 18 17 16 17 18 19 20 21 22 22 21 20 19 18 19 20 21 22 22 22 22 22 22 22 22 21 20 20 20 20 20 21 21 22 22 22 23 22 22
24 25 25 24 23 22 21 21 22 22 22 21 22 23 24 24 24 23 21 21 20 19 18 17 17 16 17 18 19 20 21 22 22 22 21 20 19 19 19 20 21 22 23 23 23 23 23 23 22 21 21 21 22 22 22 23 23 23 23 23 23 22 22
25 24 23 23 23 23 23 23 23 23 23 23 23 24 25 24 23 22 22 21 19 18 18 17 17 17 18 19 20 21 21 21 21 21 21 20 20 20 20 21 22 22 23 24 24 24 24 23 23 23 23 23 23 23 23 23 24 23 23 22 22 22 23
24 23 22 21 21 22 24 25 24 23 23 23 23 24 25 25 24 23 24 22 20 18 18 18 18 18 19 20 22 23 23 22 21 21 21 20 21 21 21 22 23 24 24 25 25 25 25 25 25 25 25 25 25 25 24 24 24 24 24 23 23 23 23
24 24 24 24 21 20 21 23 24 24 24 23 23 24 26 26 24 24 25 24 22 21 20 19 19 19 20 21 23 23 23 23 22 21 22 22 22 22 23 24 25 25 26 26 26 26 26 26 26 26 26 26 26 26 26 25 24 24 25 24 24 23 24
25 25 26 26 25 23 21 21 22 23 22 22 22 23 25 25 24 25 26 26 25 24 22 21 21 21 21 22 23 23 23 23 23 23 24 24 24 24 25 25 26 27 27 27 27 28 28 28 28 28 28 28 28 28 27 26 26 25 26 26 26 25 25
24 25 26 26 26 26 25 23 23 24 23 22 22 24 26 26 26 27 27 27 27 27 25 24 24 24 24 23 23 23 23 23 24 25 25 25 26 26 26 27 27 28 28 28 28 28 29 29 29 29 30 30 29 29 29 28 27 27 27 27 27 27 27
23 23 25 26 27 28 28 25 24 25 25 25 24 25 26 28 29 29 29 29 29 29 27 26 26 26 25 24 22 22 23 25 26 27 26 26 26 27 27 28 29 29 29 28 29 29 30 30 31 31 32 31 31 30 30 30 29 29 29 29 29 29 30
22 21 22 25 28 30 29 27 28 28 27 27 28 28 27 28 30 30 30 29 30 30 27 26 26 25 24 23 22 22 23 26 27 28 28 28 27 27 28 29 30 29 29 29 30 30 31 32 32 32 32 32 32 32 32 32 31 31 31 31 31 32 32
23 22 21 21 23 24 25 28 32 32 29 26 28 29 28 28 29 30 30 31 31 29 25 24 24 23 23 22 22 22 24 26 28 30 30 29 28 28 29 30 31 30 30 30 31 32 32 33 32 32 32 33 33 33 33 33 33 33 33 33 33 34 36
25 24 22 21 20 20 21 23 26 27 23 20 21 22 22 23 26 29 30 31 30 26 24 24 24 23 23 23 23 23 25 26 29 30 30 29 28 28 30 31 32 32 32 32 32 32 33 33 33 33 33 34 34 34 34 34 35 35 36 36 36 37 38
24 23 22 21 21 21 20 20 22 23 22 20 19 21 21 22 23 25 27 28 27 25 25 25 25 25 25 23 23 25 26 27 29 30 29 28 28 29 30 32 33 33 33 33 32 33 33 33 34 34 35 35 36 36 36 36 37 37 38 39 40 40 41
22 22 22 22 22 21 21 22 23 23 23 22 21 21 22 22 23 24 24 25 26 26 27 28 28 28 27 25 25 26 28 29 29 30 30 29 29 30 31 33 33 33 33 33 33 33 33 33 34 35 35 36 36 37 38 38 39 40 41 42 42 43 43
21 22 22 22 22 23 23 24 24 24 23 22 21 21 21 22 22 23 24 25 27 28 29 31 31 31 30 28 27 28 30 31 31 31 32 32 32 32 33 34 34 34 34 34 35 36 36 36 37 37 37 38 38 39 40 40 42 43 44 44 45 46 47
21 21 21 21 22 23 24 25 26 24 23 22 21 21 21 22 23 23 24 25 26 28 29 31 31 32 31 30 30 30 31 32 32 33 34 35 35 35 35 36 36 37 37 38 39 39 39 39 39 40 40 40 40 40 40 41 43 44 46 47 47 48 49
22 22 22 22 22 22 23 25 25 25 25 24 24 24 24 24 24 24 25 26 27 29 30 31 31 31 32 32 32 32 32 34 35 36 37 38 38 38 38 39 40 41 42 42 43 43 43 42 42 43 43 43 42 41 42 44 46 47 49 50 50 50 50
24 24 24 24 24 24 25 25 26 27 28 28 27 27 27 27 27 27 28 30 31 32 32 32 31 31 32 33 33 34 35 36 37 39 40 41 41 41 42 43 44 45 45 45 46 46 46 46 46 46 47 46 46 46 48 49 49 50 51 52 52 53 54
26 26 25 25 26 26 27 28 28 29 29 30 30 30 29 28 29 30 30 31 32 34 33 32 33 35 36 37 37 38 39 38 39 41 41 40 40 42 44 44 45 46 47 48 48 49 50 50 50 49 50 51 52 52 53 53 54 54 54 54 55 55 55
28 28 27 27 27 28 29 30 31 31 32 32 33 33 32 32 32 32 32 32 34 35 33 32 33 36 37 38 39 41 41 39 40 41 41 40 41 43 45 45 46 47 49 50 51 52 52 53 53 53 54 55 56 57 58 59 58 58 57 57 57 57 56
29 29 29 29 30 31 32 32 33 34 35 36 37 37 37 36 36 37 37 36 37 38 37 36 36 37 38 39 40 42 42 42 42 44 45 45 46 48 49 50 51 51 52 53 54 55 55 56 57 58 59 59 60 60 60 60 58 58 59 59 59 58 57
32 32 33 33 33 34 34 35 36 37 38 38 39 39 39 39 39 40 40 40 41 42 42 42 42 42 43 44 45 46 46 46 47 48 49 50 52 53 54 55 56 56 57 57 58 58 59 60 61 62 63 64 63 61 60 59 59 61 62 61 58 56 55
Wind_Direction
231 233 235 239 245 247 248 246 242 240 240 240 241 239 237 236 236 234 231 229 229 230 231 233 236 239 241 243 245 247 249 250 250 250 250 250 250 249 250 252 252 253 255 256 257 258 257 256 258 259 261 264 266 267 270 272 275 277 280 283 284 286 288
229 229 230 233 240 245 245 242 240 240 241 242 243 242 240 238 237 236 234 232 232 232 234 237 239 241 241 241 242 243 244 245 247 248 249 250 250 250 250 251 253 254 255 256 256 257 259 261 262 264 266 267 268 269 270 272 275 278 281 283 283 284 285
226 225 228 231 234 238 240 241 242 244 245 246 247 246 243 240 239 238 236 234 234 234 236 239 241 242 241 240 239 240 240 241 243 246 249 250 251 252 252 253 255 255 256 258 259 262 264 263 263 264 266 267 269 270 272 274 276 278 280 280 280 282 283
225 224 228 232 234 237 239 243 245 247 248 249 249 249 245 241 239 237 236 235 236 236 237 239 241 241 241 241 241 241 242 242 243 245 248 251 254 255 256 258 257 255 258 261 263 265 265 265 264 264 266 268 270 271 272 273 274 275 277 278 280 281 283
228 226 230 234 237 240 245 248 250 249 250 251 252 250 247 242 240 238 238 238 239 239 238 238 238 239 240 241 243 245 246 247 247 247 249 254 257 260 262 264 262 261 264 266 265 265 265 265 265 265 267 269 269 270 270 272 274 276 278 279 281 283 284
234 232 233 236 239 244 249 252 252 251 251 251 252 250 246 242 240 239 239 240 240 239 238 237 238 240 242 243 245 247 248 249 250 252 254 257 260 262 264 266 267 269 271 270 268 266 265 265 265 265 265 266 267 268 270 272 275 277 279 281 283 284 284
237 235 236 237 241 245 249 249 249 250 250 249 249 249 246 244 242 238 235 235 236 237 237 238 241 244 246 247 248 248 249 250 252 254 256 258 261 264 266 268 269 272 273 272 270 267 265 264 264 264 264 265 267 269 272 273 275 278 280 281 282 282 283
237 236 237 238 240 243 245 244 245 246 246 246 246 246 246 245 242 237 233 231 231 234 237 241 245 247 248 249 249 250 251 252 253 253 253 256 260 264 267 269 271 273 274 273 271 268 266 265 263 264 266 267 269 272 275 277 279 281 281 281 283 284 287
236 233 233 232 234 239 241 240 242 244 244 245 244 242 241 242 239 235 233 233 233 235 239 243 246 248 249 250 251 253 254 254 254 254 254 255 258 262 266 269 272 273 273 272 270 268 267 266 266 267 269 271 273 276 278 281 283 284 283 284 287 289 292
231 227 225 225 228 234 237 237 240 242 243 245 243 237 235 238 238 235 234 236 237 239 244 247 248 248 249 251 252 254 256 258 259 258 257 257 258 261 265 268 270 270 269 268 268 269 269 269 270 270 271 274 276 279 281 283 285 286 286 287 289 292 294
223 220 219 220 223 229 233 235 239 242 242 242 240 234 233 237 238 237 237 238 241 244 248 251 251 250 250 251 252 253 255 259 262 263 263 262 261 262 264 266 267 266 266 266 267 269 270 270 270 270 272 275 277 280 283 284 285 287 287 288 289 292 295
218 217 217 220 223 227 231 234 238 242 242 241 239 238 238 240 240 241 241 243 246 249 251 253 253 251 249 250 251 253 256 261 264 266 267 266 264 264 265 265 265 265 266 266 267 268 269 269 269 270 271 272 274 277 279 281 283 283 283 285 288 291 294
218 217 217 218 222 226 231 235 237 238 241 242 242 242 243 244 243 243 243 245 248 251 253 253 251 249 248 251 254 257 260 262 264 265 266 266 265 264 264 264 264 264 265 264 265 264 264 264 265 265 265 265 267 269 271 274 277 278 281 284 286 288 289
219 220 217 215 217 223 228 232 234 235 237 239 240 241 241 242 242 241 242 245 247 250 251 250 249 248 250 254 256 258 259 259 259 260 261 263 264 264 264 264 263 263 262 262 261 260 259 260 260 260 260 260 262 264 266 269 271 275 278 279 281 282 283
217 220 220 217 215 219 224 229 233 235 236 236 237 238 237 237 238 239 241 243 244 245 246 246 245 247 252 256 257 257 257 257 256 255 256 259 262 264 264 264 263 262 261 260 259 258 258 257 257 257 257 258 260 262 263 265 268 271 272 273 274 275 276
217 215 217 217 216 219 224 230 235 238 238 237 236 236 235 234 236 238 240 242 243 243 243 244 244 247 252 255 256 255 254 254 253 252 253 254 257 260 261 262 261 260 259 258 257 257 256 256 256 256 256 257 259 260 261 262 264 266 268 269 269 271 273
222 217 215 216 216 219 224 230 236 239 240 238 237 236 233 233 236 238 240 242 244 245 244 243 242 242 246 251 254 253 251 249 248 249 250 251 254 256 258 259 260 259 258 257 256 255 255 255 256 256 257 258 259 260 261 262 264 266 268 270 270 272 273
224 220 218 217 218 221 225 230 235 238 238 238 237 236 235 235 238 240 242 243 244 246 245 242 237 237 244 251 254 254 252 249 247 247 248 250 253 256 258 259 259 259 259 258 256 255 254 254 254 255 256 258 259 260 262 264 266 268 270 272 273 274 274
227 226 225 224 223 225 228 232 236 239 240 239 238 238 237 239 242 243 244 244 243 244 245 241 238 242 248 253 256 257 256 253 250 248 249 250 253 256 259 260 260 259 259 258 256 255 253 253 253 254 255 257 259 260 262 265 267 268 270 271 271 272 273
233 231 233 234 233 231 231 234 237 241 243 241 238 238 239 242 244 245 246 246 244 243 242 240 241 246 252 256 258 258 256 255 253 250 249 250 251 254 257 259 260 260 260 259 257 255 253 252 253 253 253 255 257 259 261 263 264 265 265 266 267 269 271
238 236 236 238 241 239 235 235 236 239 242 241 238 238 240 243 244 245 249 250 247 244 241 241 247 252 255 258 260 258 253 252 252 251 250 250 250 251 254 257 259 260 260 260 259 257 256 255 254 255 255 255 255 256 258 258 259 260 261 263 264 266 268
242 240 240 241 244 246 243 240 237 235 236 238 238 239 241 242 241 242 247 250 251 249 246 247 255 261 261 259 258 256 251 249 251 252 250 249 250 251 253 256 258 258 259 258 258 257 257 257 258 258 259 258 257 258 258 259 260 260 261 262 263 263 263
244 243 243 244 247 248 247 247 245 240 237 238 239 239 239 238 237 239 244 248 251 252 253 255 260 264 263 259 255 252 250 251 254 253 249 248 249 251 254 256 258 258 257 257 257 257 258 259 260 261 261 261 260 261 261 261 262 262 262 263 263 262 261
249 248 246 245 247 250 250 251 250 245 241 240 239 238 238 237 236 237 241 246 251 254 257 259 261 262 262 258 252 249 251 256 257 254 249 246 247 249 253 256 257 258 257 256 256 257 259 261 262 262 261 261 261 262 262 262 261 262 262 262 262 262 261
248 249 248 245 246 250 253 253 251 249 247 245 244 243 242 239 236 237 240 244 250 255 258 260 261 262 261 257 252 250 252 257 258 254 249 245 244 246 250 254 255 256 257 257 257 259 260 262 262 262 261 261 261 262 261 261 261 261 261 262 264 263 262
246 246 247 246 246 248 250 249 248 249 250 251 248 245 244 242 239 238 239 241 246 253 257 259 260 259 257 254 250 249 250 254 256 253 248 244 243 244 247 250 252 253 254 256 258 260 261 261 260 260 260 260 260 261 261 262 262 262 262 263 265 266 266
244 244 246 248 248 249 249 246 244 243 245 247 243 240 242 244 242 240 239 240 245 251 253 254 253 252 252 251 250 249 249 252 253 252 248 244 243 245 247 249 250 251 252 254 256 258 258 259 258 258 259 259 259 260 261 262 263 264 265 266 268 269 269
240 242 244 247 249 250 249 246 243 245 250 251 246 240 240 242 243 243 241 242 246 249 250 250 250 250 249 249 249 250 250 250 251 250 248 246 245 246 248 250 250 251 251 252 253 253 254 256 257 257 258 258 259 259 260 261 262 263 266 268 270 271 271
240 241 243 245 248 251 251 249 248 252 257 259 255 249 244 244 244 246 246 247 250 252 253 254 254 253 252 250 249 250 249 249 248 248 248 248 248 248 249 250 251 251 251 251 252 252 253 254 255 257 258 259 259 260 260 260 261 262 264 267 269 270 271
243 245 245 246 248 250 252 253 254 255 256 256 255 252 250 250 250 251 253 255 257 258 259 260 259 258 256 254 253 252 251 250 250 249 250 251 250 250 251 252 252 252 252 252 253 253 253 253 254 256 256 257 257 258 259 260 261 262 264 265 267 270 271
248 248 249 248 249 250 252 254 256 256 254 253 254 254 255 255 255 256 258 260 262 264 264 264 264 263 261 259 256 254 253 252 251 252 254 255 254 253 254 254 255 254 254 254 254 254 254 255 256 256 256 256 256 258 260 262 263 265 266 268 270 272 273
248 249 248 247 247 248 249 252 255 256 256 256 257 257 256 256 257 259 262 265 267 268 267 266 266 266 266 263 260 258 255 254 254 255 257 259 259 260 260 260 260 259 258 256 256 257 257 258 258 259 258 258 258 261 264 266 268 269 270 271 273 273 273
249 249 248 247 246 245 245 247 249 252 255 256 257 257 256 257 259 262 265 268 268 267 264 263 263 263 263 263 262 261 259 259 259 261 262 264 266 266 266 265 265 264 263 261 260 260 261 261 261 260 259 259 262 267 270 272 273 273 273 273 273 273 274
249 249 248 248 247 247 247 248 249 251 254 256 258 260 260 261 262 263 264 265 266 265 262 261 261 260 260 261 261 260 261 263 265 266 266 267 268 267 267 266 266 265 265 264 263 263 263 262 261 260 259 261 267 271 274 275 276 275 274 274 275 276 276
250 251 251 251 251 251 252 253 253 254 254 256 258 259 260 261 263 265 265 265 264 264 262 259 259 259 260 259 259 260 260 261 263 263 263 261 261 262 263 265 265 265 265 264 263 262 262 262 262 263 264 267 271 274 276 277 277 275 275 276 277 277 278
250 250 251 251 252 253 255 256 256 256 257 258 259 259 260 260 260 262 263 261 260 259 258 256 254 255 257 258 260 261 260 258 258 259 260 260 260 261 263 265 266 266 265 264 263 262 261 261 263 265 268 270 273 276 277 276 275 275 276 277 277 277 277
251 251 251 252 253 255 256 258 259 259 259 259 259 259 260 260 260 260 259 258 257 257 256 254 252 252 255 258 260 261 261 260 259 259 260 261 263 264 266 266 266 266 265 264 263 263 263 263 265 267 270 272 275 276 276 276 276 276 276 276 276 276 276
Height
5792 5792 5793 5794 5794 5794 5796 5797 5798 5799 5800 5800 5801 5801 5802 5802 5803 5803 5804 5805 5805 5806 5807 5807 5808 5809 5810 5810 5811 5811 5811 5812 5813 5813 5814 5814 5814 5814 5815 5815 5815 5815 5815 5815 5816 5815 5815 5815 5815 5815 5815 5815 5815 5815 5815 5815 5815 5815 5815 5815 5815 5815 5815
5789 5790 5791 5791 5792 5793 5795 5796 5797 5798 5798 5799 5800 5800 5801 5801 5801 5802 5803 5803 5804 5805 5805 5806 5807 5808 5808 5809 5809 5810 5810 5811 5811 5812 5812 5813 5813 5813 5813 5814 5814 5814 5814 5814 5814 5814 5814 5814 5814 5814 5814 5814 5814 5814 5814 5814 5814 5814 5814 5814 5814 5814 5813
5786 5788 5789 5789 5790 5792 5793 5794 5795 5796 5797 5798 5798 5799 5799 5799 5800 5800 5801 5802 5802 5803 5804 5805 5806 5806 5807 5807 5808 5808 5809 5810 5810 5811 5811 5811 5812 5812 5812 5812 5812 5812 5812 5812 5813 5813 5813 5813 5814 5814 5813 5813 5813 5813 5813 5813 5813 5812 5812 5812 5812 5812 5812
5785 5786 5787 5788 5789 5791 5792 5793 5794 5795 5796 5796 5797 5797 5797 5798 5798 5799 5799 5800 5801 5802 5803 5804 5804 5805 5805 5806 5806 5807 5807 5808 5809 5809 5809 5810 5810 5810 5810 5811 5811 5811 5811 5811 5811 5812 5812 5812 5812 5813 5812 5812 5812 5812 5812 5811 5811 5811 5811 5811 5811 5811 5810
5784 5785 5786 5787 5788 5789 5791 5792 5792 5793 5794 5795 5795 5796 5796 5796 5797 5797 5798 5799 5800 5801 5801 5802 5803 5803 5803 5804 5805 5805 5806 5806 5807 5807 5808 5808 5808 5809 5809 5809 5809 5809 5809 5810 5810 5810 5810 5810 5811 5811 5811 5811 5810 5810 5810 5810 5810 5810 5810 5810 5809 5809 5809
5784 5785 5785 5786 5787 5788 5789 5790 5791 5792 5792 5793 5794 5794 5794 5795 5795 5796 5797 5798 5798 5799 5800 5800 5801 5801 5802 5802 5803 5803 5804 5804 5805 5805 5806 5806 5807 5807 5807 5807 5807 5807 5808 5808 5808 5808 5808 5809 5809 5809 5809 5809 5809 5809 5809 5809 5809 5809 5809 5808 5808 5807 5807
5783 5783 5783 5784 5785 5787 5787 5788 5789 5790 5791 5791 5792 5792 5793 5793 5794 5795 5795 5796 5797 5797 5798 5799 5799 5800 5800 5801 5801 5802 5802 5802 5803 5803 5804 5804 5805 5805 5805 5806 5806 5806 5806 5806 5806 5807 5807 5807 5807 5807 5807 5807 5807 5807 5807 5807 5807 5807 5807 5806 5806 5806 5806
5781 5781 5782 5783 5784 5785 5785 5786 5788 5789 5789 5790 5790 5790 5791 5792 5793 5793 5794 5794 5795 5796 5796 5797 5798 5798 5799 5799 5799 5800 5800 5800 5801 5801 5802 5802 5802 5803 5803 5803 5803 5804 5804 5804 5804 5805 5805 5805 5805 5805 5805 5805 5805 5805 5805 5805 5805 5805 5805 5805 5805 5805 5804
5779 5779 5780 5781 5782 5783 5784 5785 5786 5787 5787 5787 5788 5788 5789 5790 5791 5792 5793 5793 5794 5794 5795 5795 5796 5797 5797 5797 5798 5798 5798 5798 5798 5799 5799 5800 5800 5800 5801 5801 5801 5802 5802 5802 5803 5803 5803 5803 5804 5804 5804 5804 5804 5803 5803 5803 5803 5803 5803 5803 5803 5803 5802
5777 5777 5778 5778 5779 5781 5782 5783 5784 5785 5785 5785 5785 5786 5787 5788 5789 5790 5791 5792 5793 5793 5793 5794 5794 5795 5795 5795 5795 5796 5796 5796 5796 5797 5797 5797 5798 5798 5799 5799 5800 5800 5800 5801 5801 5801 5801 5801 5802 5801 5802 5802 5801 5801 5801 5801 5801 5801 5801 5801 5801 5801 5800
5775 5775 5775 5776 5778 5779 5780 5781 5782 5782 5783 5783 5783 5784 5785 5786 5787 5788 5789 5790 5791 5791 5792 5792 5792 5793 5793 5793 5793 5794 5794 5794 5794 5794 5795 5795 5796 5796 5797 5797 5798 5798 5799 5799 5799 5799 5800 5799 5799 5799 5800 5800 5799 5799 5799 5799 5799 5799 5799 5799 5799 5799 5798
5773 5774 5774 5775 5776 5777 5778 5779 5780 5780 5781 5781 5782 5783 5784 5784 5785 5786 5787 5788 5788 5789 5790 5790 5790 5791 5791 5791 5792 5792 5792 5792 5792 5792 5792 5793 5793 5794 5794 5795 5796 5796 5796 5797 5797 5797 5797 5797 5797 5797 5797 5797 5797 5797 5797 5797 5797 5797 5797 5797 5797 5797 5797
5771 5772 5773 5774 5774 5775 5776 5777 5778 5778 5779 5779 5780 5781 5782 5782 5783 5784 5785 5785 5786 5787 5787 5788 5788 5789 5789 5789 5789 5789 5790 5789 5789 5790 5790 5790 5791 5791 5792 5792 5793 5794 5794 5794 5795 5795 5795 5795 5795 5795 5795 5795 5795 5795 5795 5795 5795 5795 5795 5795 5795 5795 5795
5769 5770 5771 5772 5773 5773 5774 5775 5776 5776 5777 5777 5777 5778 5779 5780 5781 5782 5782 5783 5784 5784 5785 5785 5786 5786 5787 5787 5787 5787 5787 5787 5787 5787 5787 5788 5788 5788 5789 5789 5790 5791 5791 5792 5792 5792 5793 5793 5793 5793 5793 5793 5793 5793 5793 5793 5793 5793 5793 5793 5793 5793 5793
5767 5768 5770 5770 5771 5772 5772 5773 5773 5774 5774 5775 5775 5775 5776 5777 5778 5779 5780 5781 5781 5782 5782 5783 5783 5784 5784 5785 5785 5785 5785 5785 5785 5785 5785 5785 5786 5786 5786 5787 5787 5788 5788 5789 5789 5790 5790 5790 5790 5791 5791 5791 5791 5791 5791 5791 5791 5791 5791 5791 5791 5791 5791
5765 5766 5767 5768 5769 5770 5770 5771 5771 5771 5772 5773 5773 5773 5774 5775 5776 5777 5778 5779 5779 5780 5780 5781 5781 5781 5782 5782 5782 5783 5783 5783 5783 5783 5783 5783 5783 5783 5784 5784 5785 5785 5785 5786 5787 5787 5788 5788 5788 5788 5788 5789 5789 5789 5789 5789 5789 5789 5789 5789 5789 5789 5789
5762 5762 5763 5765 5766 5767 5768 5769 5769 5769 5770 5771 5771 5771 5772 5773 5774 5775 5776 5777 5777 5778 5778 5779 5779 5779 5780 5780 5780 5780 5780 5780 5780 5780 5780 5780 5781 5781 5782 5782 5782 5783 5783 5784 5784 5785 5785 5785 5785 5786 5786 5786 5787 5787 5787 5787 5787 5787 5787 5787 5787 5787 5787
5756 5758 5759 5761 5763 5764 5765 5766 5766 5767 5768 5768 5769 5769 5770 5770 5771 5772 5773 5774 5775 5775 5776 5777 5777 5777 5778 5778 5778 5778 5778 5778 5778 5778 5778 5778 5778 5778 5779 5780 5780 5781 5781 5781 5782 5782 5783 5783 5783 5783 5784 5784 5784 5784 5784 5784 5784 5784 5785 5784 5784 5784 5784
5753 5755 5757 5758 5760 5761 5762 5763 5763 5764 5765 5766 5767 5767 5767 5768 5769 5770 5770 5771 5772 5773 5774 5774 5775 5775 5776 5776 5776 5775 5775 5775 5775 5775 5776 5776 5776 5776 5777 5777 5778 5778 5779 5779 5780 5780 5780 5780 5781 5781 5781 5781 5781 5782 5782 5782 5781 5781 5782 5782 5782 5782 5782
5752 5754 5756 5756 5757 5758 5759 5760 5761 5761 5762 5763 5764 5764 5765 5766 5767 5767 5767 5768 5770 5770 5771 5772 5773 5773 5774 5774 5774 5773 5773 5773 5773 5773 5773 5773 5774 5774 5774 5774 5775 5775 5776 5776 5777 5777 5777 5778 5778 5778 5778 5778 5778 5779 5779 5779 5778 5778 5778 5779 5779 5779 5779
5750 5752 5753 5754 5755 5756 5757 5757 5758 5758 5759 5760 5761 5762 5762 5763 5764 5765 5765 5766 5767 5768 5769 5770 5771 5771 5772 5772 5772 5772 5772 5771 5771 5771 5771 5771 5771 5771 5771 5771 5772 5772 5772 5773 5773 5774 5774 5774 5775 5775 5775 5775 5776 5776 5776 5776 5775 5775 5775 5775 5776 5776 5776
5747 5749 5750 5751 5752 5753 5754 5754 5755 5756 5756 5757 5759 5759 5760 5761 5762 5762 5762 5763 5764 5765 5766 5767 5768 5769 5769 5769 5770 5770 5770 5770 5770 5769 5768 5768 5768 5768 5768 5769 5769 5769 5770 5770 5770 5771 5771 5771 5772 5772 5772 5772 5773 5773 5773 5772 5772 5772 5772 5772 5772 5773 5773
5745 5746 5747 5748 5749 5750 5750 5751 5752 5753 5753 5754 5756 5756 5757 5758 5759 5759 5759 5760 5760 5761 5763 5764 5765 5765 5766 5766 5766 5767 5767 5767 5767 5767 5766 5765 5765 5765 5765 5766 5766 5766 5767 5767 5768 5768 5768 5769 5769 5769 5769 5769 5770 5770 5769 5769 5769 5769 5769 5769 5769 5769 5769
5742 5744 5745 5746 5746 5746 5747 5748 5749 5749 5750 5751 5752 5753 5754 5755 5755 5756 5757 5757 5757 5758 5759 5760 5761 5762 5762 5762 5763 5763 5764 5764 5764 5764 5763 5763 5763 5763 5763 5763 5763 5764 5764 5765 5765 5765 5766 5766 5766 5766 5766 5766 5766 5766 5766 5766 5766 5766 5766 5766 5766 5766 5766
5739 5740 5742 5743 5743 5743 5744 5745 5745 5746 5747 5748 5749 5750 5751 5752 5752 5753 5754 5755 5755 5755 5756 5757 5758 5758 5759 5759 5760 5760 5761 5761 5761 5761 5761 5760 5760 5760 5760 5760 5761 5761 5761 5762 5762 5762 5763 5763 5763 5763 5763 5763 5763 5763 5763 5763 5763 5763 5763 5763 5763 5762 5762
5737 5738 5738 5739 5739 5740 5741 5742 5742 5743 5744 5745 5746 5746 5747 5748 5749 5750 5751 5751 5752 5752 5753 5754 5754 5755 5755 5756 5757 5757 5757 5758 5758 5758 5758 5758 5758 5758 5758 5758 5758 5758 5758 5758 5759 5759 5759 5759 5759 5760 5760 5760 5760 5759 5759 5759 5759 5759 5759 5759 5759 5759 5759
5734 5735 5736 5736 5737 5737 5738 5739 5739 5739 5741 5742 5742 5743 5744 5745 5746 5746 5747 5747 5748 5749 5750 5751 5751 5752 5752 5753 5753 5754 5754 5754 5755 5755 5755 5755 5755 5755 5755 5754 5754 5754 5754 5754 5755 5755 5755 5756 5756 5756 5756 5756 5756 5756 5756 5756 5756 5756 5756 5756 5755 5755 5755
5732 5732 5733 5734 5735 5735 5736 5736 5736 5737 5738 5739 5740 5741 5742 5743 5743 5743 5744 5744 5745 5747 5747 5748 5748 5748 5749 5749 5750 5750 5750 5750 5750 5751 5751 5751 5751 5751 5751 5750 5750 5750 5750 5750 5751 5751 5751 5752 5752 5752 5752 5752 5752 5752 5752 5752 5752 5752 5751 5751 5751 5751 5750
5729 5730 5731 5732 5733 5733 5734 5734 5734 5735 5736 5736 5737 5738 5739 5740 5741 5741 5742 5742 5743 5744 5744 5744 5744 5745 5745 5745 5746 5746 5746 5746 5746 5747 5747 5747 5747 5747 5746 5746 5746 5746 5746 5747 5747 5747 5747 5748 5748 5748 5748 5748 5748 5748 5748 5748 5748 5747 5747 5746 5746 5745 5745
5726 5727 5728 5729 5730 5731 5731 5731 5732 5733 5733 5734 5734 5735 5736 5737 5738 5739 5739 5740 5740 5741 5741 5741 5741 5741 5742 5742 5742 5742 5742 5742 5742 5742 5743 5743 5742 5742 5742 5742 5742 5743 5743 5743 5743 5743 5743 5744 5744 5744 5744 5744 5744 5744 5744 5743 5743 5742 5742 5741 5741 5740 5739
5724 5724 5725 5726 5727 5728 5729 5729 5729 5730 5731 5731 5732 5733 5734 5735 5735 5736 5736 5737 5737 5738 5738 5738 5738 5738 5738 5739 5739 5738 5738 5739 5739 5738 5738 5738 5738 5738 5738 5738 5738 5738 5739 5739 5739 5739 5739 5739 5739 5739 5739 5738 5738 5739 5739 5738 5738 5737 5737 5736 5735 5735 5733
5721 5721 5722 5723 5724 5725 5725 5726 5726 5727 5728 5728 5729 5730 5730 5731 5731 5732 5733 5733 5734 5734 5734 5734 5734 5735 5735 5735 5735 5735 5735 5735 5735 5734 5734 5734 5734 5735 5734 5734 5734 5733 5734 5734 5733 5733 5733 5734 5734 5733 5733 5732 5732 5733 5732 5732 5732 5731 5730 5730 5729 5728 5727
5718 5719 5719 5720 5720 5721 5722 5722 5723 5723 5724 5724 5725 5725 5726 5727 5727 5728 5728 5729 5729 5729 5729 5730 5730 5731 5730 5730 5731 5731 5730 5730 5730 5730 5730 5730 5730 5730 5730 5729 5729 5729 5728 5728 5728 5728 5728 5728 5727 5727 5726 5726 5725 5726 5725 5724 5724 5724 5722 5722 5721 5720 5719
5715 5716 5716 5717 5717 5718 5718 5719 5719 5720 5720 5721 5721 5721 5722 5722 5723 5723 5723 5723 5723 5723 5724 5725 5725 5725 5725 5725 5725 5725 5725 5725 5726 5725 5725 5725 5725 5724 5723 5723 5723 5723 5722 5722 5723 5722 5722 5721 5721 5720 5719 5718 5718 5718 5718 5717 5716 5715 5715 5714 5713 5712 5711
5711 5712 5712 5713 5714 5714 5715 5716 5716 5716 5717 5717 5717 5718 5718 5719 5719 5718 5718 5718 5718 5718 5719 5720 5719 5718 5718 5719 5719 5719 5720 5721 5720 5719 5720 5720 5719 5717 5716 5717 5717 5717 5716 5716 5716 5716 5716 5715 5714 5713 5712 5711 5711 5711 5710 5709 5709 5708 5707 5706 5704 5703 5703
5708 5708 5709 5709 5709 5710 5711 5711 5712 5712 5713 5713 5713 5713 5714 5714 5715 5714 5714 5714 5714 5714 5715 5715 5714 5713 5713 5713 5714 5714 5715 5715 5715 5713 5713 5713 5712 5711 5711 5711 5711 5710 5710 5710 5709 5709 5709 5708 5707 5706 5705 5704 5704 5703 5702 5701 5701 5700 5698 5697 5696 5695 5694
5704 5704 5704 5705 5705 5705 5706 5707 5707 5708 5708 5708 5709 5709 5709 5709 5709 5710 5710 5710 5710 5709 5709 5709 5709 5708 5708 5708 5708 5708 5708 5708 5708 5708 5707 5707 5706 5705 5704 5704 5704 5703 5703 5702 5702 5701 5701 5700 5700 5699 5697 5697 5697 5696 5694 5693 5693 5691 5689 5688 5687 5686 5686